SCP
0 0 0 0 0 0 0 0 0 0 0 0 0 0 0 0 0 0 0 0 0 0 0 0 0 0 0 0 0 0 0 0 0 0 0 0 0 0 0 0 0 0 0 0 0 0 0 0 0 0 0 0 0 0
0 0 0 0 0 0 0 0 0 0 0 0 0 0 0 0 0 0 0 0 0 0 0 0 0 0 0 0 0 0 0 0 0 0 0 0 0 0 0 0 0 0 0 0 0 0 0 0 0 0 0 0 0 0
0 0 0 0 0 0 0 0 0 0 0 0 0 0 0 0 0 0 0 0 0 0 0 0 0 0 0 0 0 0 0 0 0 0 0 0 0 0 0 0 0 0 0 0 0 0 0 0 0 0 0 0 0 0
0 0 0 0 0 0 0 0 0 0 0 0 0 0 0 0 0 0 0 0 0 0 0 0 0 0 0 0 0 0 0 0 0 0 0 0 0 0 0 0 0 0 0 0 0 0 0 0 0 0 0 0 0 0
0 0 0 0 0 0 0 0 0 0 0 0 0 0 0 0 0 0 0 0 0 0 0 0 0 0 0 0 0 0 0 0 0 0 0 0 0 0 0 0 0 0 0 0 0 0 0 0 0 0 0 0 0 0
0 0 0 0 0 0 0 0 0 0 0 0 0 0 0 0 0 0 0 0 0 0 0 0 0 0 0 0 0 0 0 0 0 0 0 0 0 0 0 0 0 0 0 0 0 0 0 0 0 0 0 0 0 0
0 0 0 0 0 0 0 0 0 0 0 0 0 0 0 0 0 0 0 0 0 0 0 0 0 0 0 0 0 0 0 0 0 0 0 0 0 0 0 0 0 0 0 0 0 0 0 0 0 0 0 0 0 0
0 0 0 0 0 0 0 0 0 0 0 0 0 0 0 0 0 0 0 0 0 0 0 0 0 0 0 0 0 0 0 0 0 0 0 0 0 0 0 0 0 0 0 0 0 0 0 0 0 0 0 0 0 0
0 0 0 0 0 0 0 0 0 0 0 0 0 0 0 0 0 0 0 0 0 0 0 0 0 0 0 0 0 0 0 0 0 0 0 0 0 0 0 0 0 0 0 0 0 0 0 0 0 0 0 0 0 0
0 0 0 0 0 0 0 0 0 0 0 0 0 0 0 0 0 0 0 0 0 0 0 0 0 0 0 0 0 0 0 0 0 0 0 0 0 0 0 0 0 0 0 0 0 0 0 0 0 0 0 0 0 0
0 0 0 0 0 0 0 0 0 0 0 0 0 0 0 0 0 0 0 0 0 0 0 0 0 0 0 0 0 0 0 0 0 0 0 0 0 0 0 0 0 0 0 0 0 0 0 0 0 0 0 0 0 0
0 0 0 0 0 0 0 0 0 0 0 0 0 0 0 0 0 0 0 0 0 0 0 0 0 0 0 0 0 0 0 0 0 0 0 0 0 0 0 0 0 0 0 0 0 0 0 0 0 0 0 0 0 0
0 0 0 0 0 0 0 0 0 0 0 0 0 0 0 0 0 0 0 0 0 0 0 0 0 0 0 0 0 0 0 0 0 0 0 0 0 0 0 0 0 0 0 -0 0 0 0 0 0 0 0 0 0 0
0 0 0 0 0 0 0 0 0 0 0 0 0 0 0 0 0 0 0 0 0 0 0 0 0 0 0 0 0 0 0 0 0 0 0 0 0 0 0 0 0 0 0 0 0 0 0 0 0 0 0 0 0 0
0 0 0 0 0 0 0 0 0 0 0 0 0 0 0 0 0 0 0 0 0 0 0 0 0 0 0 0 0 0 0 0 0 0 0 0 0 0 0 0 0 0 0 0 0 0 0 0 0 0 0 0 0 0
0 0 -0 0 0 0 0 0 0 0 0 0 0 0 0 0 0 0 0 0 0 0 0 0 0 0 0 0 0 0 0 0 0 0 0 0 0 0 0 0 0 0 0 0 0 0 0 0 0 0 0 0 0 0
0 0 0 0 0 0 0 0 0 0 0 0 0 0 0 0 0 0 0 0 0 0 0 0 0 0 0 0 0 0 0 0 0 0 0 0 0 0 0 0 0 0 0 0 0 0 0 0 0 0 0 0 0 0
0 0 0 0 0 0 0 0 0 0 0 0 0 0 0 0 0 0 0 0 0 0 0 0 0 0 0 0 0 0 0 0 0 0 0 0 0 0 0 0 0 0 0 0 0 0 0 0 0 0 0 0 0 0
0 0 0 0 0 0 0 0 0 0 0 0 0 0 0 0 0 0 0 0 0 0 0 0 0 0 0 0 0 0 0 0 0 0 0 0 0 0 0 0 0 0 0 0 0 0 0 0 0 0 0 0 0 0
0 0 0 0 0 0 0 0 0 0 0 0 0 0 0 0 0 0 0 0 0 0 0 0 0 0 0 0 0 0 0 0 0 0 0 0 0 0 0 0 0 0 0 0 0 0 0 0 0 0 0 0 0 0
0 0 0 0 0 0 0 0 0 0 0 0 0 0 0 0 0 0 0 0 0 0 0 0 0 0 0 0 0 0 0 0 0 0 0 0 0 0 0 0 0 0 0 0 0 0 0 0 0 0 0 0 0 0
0 0 0 0 0 0 0 0 0 0 0 0 0 0 0 0 0 0 0 0 0 0 0 0 0 0 0 0 0 0 0 0 0 0 0 0 0 0 0 0 0 0 0 0 0 0 0 0 0 0 0 0 0 0
0 0 0 0 0 0 0 0 0 0 0 0 0 0 0 0 0 0 0 0 0 0 0 0 0 0 0 0 0 0 0 0 0 0 0 0 0 0 0 0 0 0 0 0 0 0 0 0 0 0 0 0 0 0
0 0 0 0 0 0 0 0 0 0 0 0 0 0 0 0 0 0 0 0 0 0 0 0 0 0 0 0 0 0 0 0 0 0 0 0 0 0 0 0 0 0 0 0 0 0 0 0 0 0 0 0 0 0
0 0 0 0 0 0 0 0 0 0 0 0 0 0 0 0 0 0 0 0 0 0 0 0 0 0 0 0 0 0 0 0 0 0 0 0 0 0 0 0 0 0 0 0 0 0 0 0 0 0 0 0 0 0
0 0 0 0 0 0 0 0 0 0 0 0 0 0 0 0 0 0 0 0 0 0 0 0 0 0 0 0 0 0 0 0 0 0 0 0 0 0 0 0 0 0 0 0 0 0 0 0 0 0 0 0 0 0
0 0 -0 -0 -0 0 0 0 0 0 0 0 0 0 0 0 0 0 0 0 0 0 0 0 0 0 0 0 0 0 0 0 0 0 0 0 0 0 0 0 0 0 0 -0 -0 0 0 0 0 0 0 0 0 0
0 0 0 -0 -0 -0 0 -0 0 0 0 0 0 0 0 0 0 0 0 0 0 0 0 0 0 0 0 0 0 0 0 0 0 0 0 0 0 0 0 0 0 0 0 0 0 0 0 0 0 0 0 0 0 0
0 0 -0 0 0 -0 -0 0 0 0 0 0 0 0 0 0 0 0 0 0 0 0 0 0 0 0 0 0 0 0 0 0 0 0 0 0 0 0 0 0 0 0 0 0 0 0 -0 0 0 0 0 0 0 0
0 0 0 0 -0 0 -0 -0 -0 -0 0 0 0 0 0 0 0 0 0 0 0 0 0 0 0 0 0 0 0 0 0 0 0 0 0 0 0 0 0 0 0 0 -0 0 0 0 0 0 0 0 0 0 0 0
0 -0 0 0 0 0 0 0 0 0 0 0 0 0 0 0 0 0 0 0 0 0 0 0 0 0 0 0 0 0 0 0 0 0 0 0 0 0 0 0 0 -0 -0 0 0 0 0 0 0 0 0 0 0 0
-0 -0 0 0 0 -0 -0 -0 0 0 0 0 0 0 0 0 0 0 0 0 0 0 0 0 0 0 0 0 0 0 0 0 0 0 0 0 0 0 0 0 0 0 -0 -0 0 0 0 0 0 0 0 0 0 0
0 0 0 0 0 -0 -0 -0 -0 -0 -0 0 0 0 0 0 0 0 0 0 0 0 0 0 0 0 0 0 0 0 0 0 0 0 0 0 0 0 0 0 0 0 -0 -0 0 0 0 0 0 0 0 0 0 0
Wind_Speed_500mb
56 54 50 48 41 34 26 20 13 11 11 9 5 7 10 12 15 16 16 25 16 8 11 14 13 8 5 6 2 1 4 6 7 7 3 3 3 4 4 4 5 7 9 5 5 4 8 22 13 9 13 25 21 19
52 54 58 54 47 45 38 29 21 13 12 11 8 6 6 10 11 13 14 21 18 5 4 13 16 16 17 17 5 7 5 5 5 8 3 5 4 4 4 8 2 6 5 4 13 4 2 38 4 19 34 28 19 19
53 47 49 58 58 50 42 36 31 24 18 14 9 5 5 7 8 10 12 17 14 7 6 9 10 14 17 21 13 4 3 5 7 10 10 4 4 5 7 5 3 4 5 3 5 8 10 27 21 20 29 21 17 14
55 57 41 50 54 55 50 40 33 30 26 22 16 9 5 7 6 7 9 12 10 4 3 3 9 9 13 17 18 17 15 16 19 13 7 4 3 7 4 2 4 1 13 6 7 8 7 17 42 21 32 22 19 16
51 50 44 42 43 48 51 43 36 30 26 24 20 15 9 7 7 5 6 6 7 5 1 1 6 6 6 8 8 10 9 9 6 6 5 3 6 8 3 2 5 13 9 7 5 8 11 11 31 41 35 30 19 14
60 52 49 44 38 37 40 38 36 32 27 23 21 18 13 10 7 4 4 7 4 5 4 1 3 4 10 5 2 6 6 6 6 6 6 5 5 1 6 6 8 27 21 18 5 7 20 20 10 28 37 33 20 17
55 59 53 47 44 39 34 31 31 30 26 22 19 17 15 13 12 7 3 2 5 1 3 3 5 4 12 11 4 3 7 4 5 6 4 3 4 3 3 8 13 29 28 24 22 21 13 22 14 22 33 35 27 24
47 53 56 53 44 42 32 29 30 29 24 20 17 15 15 14 15 15 6 1 3 3 2 1 4 1 9 6 5 6 4 4 6 5 3 2 6 3 8 10 14 22 28 26 21 22 13 7 13 13 28 35 34 31
42 46 51 54 49 39 36 33 30 28 23 20 15 10 9 11 13 16 10 5 7 3 1 1 4 5 11 6 5 5 5 3 1 3 3 5 3 9 9 9 12 15 18 12 19 13 18 19 17 16 23 32 33 32
42 43 47 51 53 43 39 35 32 31 26 20 11 7 8 13 15 21 8 5 4 3 6 7 7 4 9 8 4 5 3 3 5 3 4 5 6 24 24 22 30 26 17 22 16 13 11 17 20 22 23 26 26 22
41 41 44 49 56 45 39 36 33 31 27 18 11 6 11 25 15 9 4 3 3 4 11 10 20 4 10 5 5 6 5 3 4 5 5 2 5 5 18 23 18 23 20 14 21 9 8 7 11 4 6 6 2 12
41 43 41 47 57 48 41 36 33 32 23 20 12 17 23 8 5 6 4 2 7 8 11 11 14 21 9 10 6 8 4 4 5 10 4 4 3 16 21 16 3 18 22 12 11 10 10 10 9 7 4 5 7 9
40 45 39 48 56 54 44 36 34 35 21 19 9 10 8 6 4 12 16 6 7 10 15 13 10 16 11 10 6 5 8 7 14 6 5 4 4 12 16 19 15 4 21 27 23 14 6 11 9 2 4 8 12 17
40 41 44 51 56 56 50 42 37 39 29 10 9 6 9 7 9 11 11 6 11 8 23 26 14 6 8 8 5 8 4 8 7 7 7 6 5 13 22 23 20 26 24 20 17 14 14 12 7 4 3 5 7 8
42 40 49 52 56 56 50 45 40 42 13 7 8 8 11 8 8 5 15 6 6 10 24 12 8 5 5 6 5 6 7 7 9 7 4 13 15 23 30 32 34 34 33 31 27 23 21 17 13 11 10 11 11 12
36 42 58 58 55 57 55 47 44 37 5 7 8 6 9 4 7 8 11 13 9 9 20 6 6 6 7 5 9 11 12 9 8 7 19 27 31 32 33 32 31 30 29 27 25 23 19 18 18 17 15 14 16 18
51 27 53 49 66 58 57 51 25 15 12 7 7 13 14 15 11 7 11 17 17 12 5 5 10 9 8 6 9 6 8 4 23 34 38 36 37 36 33 32 31 29 28 28 26 26 26 24 17 14 21 26 27 27
57 46 53 68 64 61 38 18 13 11 9 11 8 3 9 16 11 8 9 18 21 16 9 4 6 7 6 11 6 10 9 22 33 39 44 40 37 34 30 28 26 24 24 24 23 21 19 21 23 25 24 25 30 35
58 64 53 46 51 30 10 11 11 9 9 7 12 14 14 15 16 17 16 18 30 18 8 6 5 6 6 10 10 22 36 41 52 49 45 39 35 30 26 22 20 18 16 16 15 18 20 22 22 23 26 27 29 30
57 56 56 44 34 10 8 6 13 7 8 6 9 9 9 10 10 10 12 15 28 14 11 8 9 8 9 15 22 42 49 58 63 52 43 37 30 24 20 15 11 9 9 10 13 15 18 23 26 29 32 35 37 37
56 45 38 35 21 11 6 9 8 8 5 7 7 6 7 11 10 10 7 15 15 9 9 13 23 24 13 15 33 51 57 55 48 44 43 36 26 16 9 5 3 7 11 16 20 24 27 29 30 29 29 30 30 31
52 38 35 23 7 6 6 8 5 6 6 5 5 5 3 5 8 12 10 9 7 7 10 15 30 39 50 56 57 54 50 40 34 33 27 21 14 8 0 7 12 18 22 26 29 31 34 38 40 42 45 48 50 52
46 30 15 7 5 6 5 11 5 5 5 4 7 8 1 6 7 12 7 6 5 12 26 43 46 48 52 57 51 46 39 32 27 22 17 11 6 4 9 15 21 26 30 35 40 43 45 49 49 50 52 52 53 53
33 7 5 8 7 6 8 10 7 4 7 4 7 7 11 7 9 7 5 6 12 26 40 48 50 49 46 43 40 37 32 25 18 14 10 7 5 9 16 24 31 36 40 44 44 42 43 44 46 43 42 42 43 41
6 6 5 6 7 7 8 9 9 8 8 12 10 8 9 15 6 6 7 9 27 26 31 43 45 41 40 36 31 30 26 23 19 16 15 15 15 20 24 25 26 28 29 30 29 33 35 33 34 34 34 34 37 39
4 11 18 18 12 11 12 10 13 14 11 11 11 6 9 8 10 9 10 26 45 48 38 33 39 40 39 38 40 38 34 30 26 23 20 19 17 15 15 17 18 17 24 26 32 36 38 38 37 36 36 38 43 48
6 9 13 17 12 11 10 10 8 11 9 7 6 10 9 9 11 6 18 33 45 52 55 55 49 44 46 46 41 36 33 29 24 21 19 17 14 12 13 14 15 18 25 28 33 37 37 34 36 40 46 50 47 47
10 8 11 23 14 17 8 13 11 15 12 13 13 9 10 11 6 6 11 21 24 33 37 38 39 39 38 38 37 33 29 25 23 21 17 16 15 15 18 23 28 31 30 30 31 32 35 37 40 44 46 48 56 57
12 15 18 14 12 9 8 6 9 7 9 15 9 6 7 7 7 9 10 18 27 29 31 32 34 35 35 32 29 28 28 25 21 20 19 15 15 17 23 25 28 26 28 31 29 31 34 41 44 41 40 49 53 49
6 10 10 9 7 6 8 12 9 10 11 12 8 7 8 8 9 11 13 27 35 33 28 25 23 24 25 26 27 26 23 19 17 16 15 16 17 19 19 18 21 24 29 32 32 32 33 38 24 28 35 42 45 42
5 4 3 4 3 1 9 14 16 14 13 10 11 9 10 10 9 16 23 27 30 27 21 21 22 25 26 26 24 22 20 18 16 15 15 16 17 18 20 25 27 26 27 31 32 33 33 19 23 30 37 39 40 39
4 5 5 4 5 13 16 7 8 5 9 6 7 8 9 9 10 15 34 38 35 32 26 22 24 24 22 22 20 19 17 14 13 13 13 13 13 18 22 24 22 20 25 25 29 31 25 19 27 32 34 28 32 34
6 7 5 8 10 12 14 9 9 6 8 7 11 14 13 11 11 11 16 42 37 25 23 22 22 19 18 17 15 12 10 9 7 5 6 10 15 18 18 15 15 16 20 22 25 26 20 19 22 24 25 27 34 36
Wind_Direction_500mb
212 210 215 220 222 229 238 241 252 261 276 291 322 359 4 4 353 359 11 17 30 59 72 58 63 68 69 47 90 51 128 42 70 77 115 125 147 119 129 138 184 179 151 162 139 193 266 163 143 210 146 168 161 165
208 214 218 220 223 232 237 232 238 251 268 287 286 342 360 338 343 354 356 358 19 34 82 54 77 75 65 53 48 37 100 87 129 103 121 132 140 163 164 196 90 204 208 202 207 210 90 182 195 194 173 170 167 168
212 211 215 216 220 225 229 231 237 239 250 280 284 286 323 324 329 335 354 2 0 18 79 104 84 78 71 58 47 100 88 114 110 115 132 112 140 166 180 221 172 194 181 236 198 173 227 213 209 194 185 166 150 147
208 212 210 210 217 222 227 228 230 234 239 257 276 276 267 294 315 320 352 15 14 358 65 88 122 103 71 59 56 76 113 121 123 114 98 119 133 200 180 82 242 79 157 167 262 251 260 238 215 209 190 175 160 168
202 206 206 203 210 216 221 223 226 231 236 241 259 272 256 269 279 290 316 347 21 58 16 357 149 126 122 58 55 77 95 106 94 103 91 112 121 151 109 200 223 191 169 193 236 223 211 234 224 216 196 188 172 189
206 206 205 204 204 204 208 215 221 225 232 235 245 259 251 243 237 245 293 273 268 35 22 79 244 186 169 137 82 55 85 104 97 90 94 113 160 219 182 215 243 206 211 225 226 251 239 246 266 218 205 196 182 192
206 207 206 203 203 204 205 210 215 217 223 229 234 244 240 227 207 202 211 306 249 61 9 318 352 186 179 167 155 90 63 81 97 108 81 117 146 198 250 236 241 227 223 234 240 253 255 248 246 223 208 203 202 207
204 205 204 202 202 203 203 207 209 208 210 212 220 227 226 219 199 198 196 141 155 176 10 178 279 306 166 161 167 138 144 92 51 88 99 194 146 235 250 254 262 243 236 228 224 224 235 256 232 228 214 215 218 223
203 204 202 202 203 202 203 204 203 201 202 198 204 218 202 182 175 184 179 164 178 175 102 169 195 185 175 149 123 112 138 110 204 183 171 209 152 225 234 260 293 292 250 230 228 224 251 273 277 268 242 227 224 230
200 201 199 198 198 200 199 197 195 193 190 183 183 169 177 171 160 153 160 203 203 213 226 243 202 214 175 148 117 127 107 133 197 129 140 229 259 259 276 291 280 267 280 232 234 221 241 286 280 261 246 237 235 240
198 197 197 194 192 190 189 185 186 192 185 179 178 170 158 143 134 169 174 171 192 253 219 220 199 181 185 136 144 191 143 157 214 144 223 203 262 265 299 310 296 243 225 230 207 233 125 80 47 116 164 147 250 267
196 194 192 192 190 188 179 179 186 186 180 179 154 131 142 176 145 150 177 193 219 228 209 191 202 193 186 181 163 172 157 169 216 143 180 237 253 327 337 353 37 165 173 157 146 138 149 124 115 119 168 245 272 281
195 192 191 184 183 182 180 184 187 186 174 160 177 164 171 174 134 196 177 194 227 203 191 177 164 166 166 183 109 164 175 189 130 186 223 228 328 5 25 55 44 143 204 220 223 214 203 187 175 144 338 317 288 280
193 190 183 179 180 179 179 184 189 181 169 185 175 186 204 187 230 194 198 186 197 191 173 164 148 156 164 170 140 177 116 146 172 195 224 145 106 66 65 72 79 81 95 118 135 155 159 147 140 114 57 46 28 358
188 188 179 181 181 182 181 181 187 184 187 190 197 225 212 235 248 247 217 215 168 171 162 140 107 161 147 156 200 117 159 208 210 207 154 148 124 110 100 94 92 91 91 92 95 96 91 87 82 65 35 13 357 347
187 177 188 181 181 182 174 175 178 185 235 210 228 260 231 255 230 212 203 213 178 136 168 165 146 177 200 175 174 203 170 195 182 172 149 138 129 118 110 104 98 93 89 85 81 75 74 70 61 50 33 16 7 358
172 195 195 172 172 167 166 170 153 175 210 219 228 237 248 276 259 242 202 212 202 180 216 169 185 185 118 196 192 193 187 157 152 142 142 138 131 124 119 112 104 98 92 84 78 72 66 59 47 37 38 28 19 11
179 171 168 176 163 148 152 153 140 186 197 223 253 246 236 254 270 271 231 213 196 203 187 243 152 190 192 175 203 180 156 141 141 140 141 138 135 129 124 114 104 92 83 76 65 58 48 35 26 25 13 2 350 338
161 163 166 169 181 139 112 147 156 191 199 224 247 261 268 267 262 253 241 233 209 201 215 202 206 200 202 213 193 165 155 153 146 142 139 138 135 131 121 110 98 85 72 59 43 28 16 4 353 339 329 324 321 319
151 150 148 140 145 106 103 124 163 179 209 198 227 244 259 257 255 250 249 233 200 195 214 216 212 212 210 215 184 171 162 155 148 139 138 138 135 131 124 112 94 67 32 3 347 337 327 319 315 314 316 318 319 318
138 146 159 157 124 96 122 158 170 191 195 235 216 239 249 240 224 211 200 182 183 213 213 216 219 219 200 172 166 160 155 157 153 153 150 144 142 137 128 115 31 349 337 333 329 324 321 319 318 319 319 318 315 314
147 154 142 139 98 116 122 185 179 179 214 255 239 207 312 266 208 190 187 201 223 216 214 209 177 163 153 150 152 154 152 156 156 152 149 148 150 152 181 333 330 322 318 316 314 313 312 309 308 309 309 308 307 305
151 137 128 126 117 159 153 181 197 198 210 230 185 171 211 291 236 177 178 178 208 192 164 153 146 144 146 147 152 153 154 159 154 152 153 166 190 255 299 306 307 305 302 300 298 298 297 297 300 301 302 303 305 306
158 128 134 169 167 154 155 179 202 233 177 216 190 196 175 200 265 227 167 151 168 164 162 160 159 154 151 155 160 162 164 167 171 170 177 197 243 281 289 289 289 289 290 292 294 295 295 298 302 305 306 308 311 312
133 197 193 192 191 190 199 167 186 207 221 196 195 188 197 164 219 202 177 188 179 177 176 173 172 176 175 174 179 183 186 191 198 207 211 226 251 271 283 290 294 299 303 302 300 301 307 311 312 312 311 311 311 311
205 205 184 189 185 190 198 186 197 208 192 182 216 177 168 177 206 227 191 203 190 190 203 205 201 199 198 200 200 199 200 203 207 214 228 248 263 277 288 303 318 329 325 327 328 325 322 320 319 321 321 325 321 316
241 207 208 202 199 180 203 226 197 195 170 203 206 183 185 201 221 211 195 199 204 202 202 205 216 220 218 210 207 205 202 206 219 234 245 252 258 272 292 306 313 323 335 335 329 325 322 323 320 319 319 315 315 319
240 257 215 188 201 220 227 188 184 194 192 180 167 177 196 203 207 194 195 203 207 205 206 210 212 211 209 202 198 201 209 222 232 240 250 254 262 273 296 305 311 314 319 322 321 317 320 321 319 317 312 315 320 319
234 241 200 211 215 173 180 189 210 210 190 181 194 181 202 190 188 183 191 188 178 175 174 170 166 172 179 188 199 211 220 228 237 249 253 249 256 264 284 298 309 317 315 321 318 315 319 319 318 317 321 320 322 322
236 197 187 177 176 210 196 193 196 182 171 173 159 150 158 166 196 206 188 179 178 172 173 176 185 192 201 207 211 214 221 234 245 243 248 261 273 282 290 304 314 318 325 324 317 312 312 317 330 324 327 330 333 330
294 222 150 108 97 152 167 153 151 155 160 185 208 204 192 185 189 184 176 181 185 187 194 201 203 204 204 204 207 212 223 235 250 255 266 278 286 290 293 303 307 311 322 324 321 317 315 316 317 330 334 339 341 343
224 229 153 121 121 143 144 163 181 172 162 151 165 171 179 189 218 214 205 194 193 197 202 206 202 199 198 200 202 209 221 228 239 257 277 286 290 301 305 308 313 318 331 331 322 318 314 313 320 333 339 344 351 352
202 200 163 135 148 179 209 212 203 177 194 215 211 203 202 209 237 229 215 207 207 201 204 190 182 188 188 190 191 194 203 218 217 240 278 301 312 316 317 318 324 332 341 332 334 337 331 324 329 339 342 338 345 353
Wind_Speed_850mb
56 54 50 48 41 34 26 20 13 11 11 9 5 7 10 12 15 16 16 25 16 8 11 14 13 8 5 6 2 1 4 6 7 7 3 3 3 4 4 4 5 7 9 5 5 4 8 22 13 9 13 25 21 19
52 54 58 54 47 45 38 29 21 13 12 11 8 6 6 10 11 13 14 21 18 5 4 13 16 16 17 17 5 7 5 5 5 8 3 5 4 4 4 8 2 6 5 4 13 4 2 38 4 19 34 28 19 19
53 47 49 58 58 50 42 36 31 24 18 14 9 5 5 7 8 10 12 17 14 7 6 9 10 14 17 21 13 4 3 5 7 10 10 4 4 5 7 5 3 4 5 3 5 8 10 27 21 20 29 21 17 14
55 57 41 50 54 55 50 40 33 30 26 22 16 9 5 7 6 7 9 12 10 4 3 3 9 9 13 17 18 17 15 16 19 13 7 4 3 7 4 2 4 1 13 6 7 8 7 17 42 21 32 22 19 16
51 50 44 42 43 48 51 43 36 30 26 24 20 15 9 7 7 5 6 6 7 5 1 1 6 6 6 8 8 10 9 9 6 6 5 3 6 8 3 2 5 13 9 7 5 8 11 11 31 41 35 30 19 14
60 52 49 44 38 37 40 38 36 32 27 23 21 18 13 10 7 4 4 7 4 5 4 1 3 4 10 5 2 6 6 6 6 6 6 5 5 1 6 6 8 27 21 18 5 7 20 20 10 28 37 33 20 17
55 59 53 47 44 39 34 31 31 30 26 22 19 17 15 13 12 7 3 2 5 1 3 3 5 4 12 11 4 3 7 4 5 6 4 3 4 3 3 8 13 29 28 24 22 21 13 22 14 22 33 35 27 24
47 53 56 53 44 42 32 29 30 29 24 20 17 15 15 14 15 15 6 1 3 3 2 1 4 1 9 6 5 6 4 4 6 5 3 2 6 3 8 10 14 22 28 26 21 22 13 7 13 13 28 35 34 31
42 46 51 54 49 39 36 33 30 28 23 20 15 10 9 11 13 16 10 5 7 3 1 1 4 5 11 6 5 5 5 3 1 3 3 5 3 9 9 9 12 15 18 12 19 13 18 19 17 16 23 32 33 32
42 43 47 51 53 43 39 35 32 31 26 20 11 7 8 13 15 21 8 5 4 3 6 7 7 4 9 8 4 5 3 3 5 3 4 5 6 24 24 22 30 26 17 22 16 13 11 17 20 22 23 26 26 22
41 41 44 49 56 45 39 36 33 31 27 18 11 6 11 25 15 9 4 3 3 4 11 10 20 4 10 5 5 6 5 3 4 5 5 2 5 5 18 23 18 23 20 14 21 9 8 7 11 4 6 6 2 12
41 43 41 47 57 48 41 36 33 32 23 20 12 17 23 8 5 6 4 2 7 8 11 11 14 21 9 10 6 8 4 4 5 10 4 4 3 16 21 16 3 18 22 12 11 10 10 10 9 7 4 5 7 9
40 45 39 48 56 54 44 36 34 35 21 19 9 10 8 6 4 12 16 6 7 10 15 13 10 16 11 10 6 5 8 7 14 6 5 4 4 12 16 19 15 4 21 27 23 14 6 11 9 2 4 8 12 17
40 41 44 51 56 56 50 42 37 39 29 10 9 6 9 7 9 11 11 6 11 8 23 26 14 6 8 8 5 8 4 8 7 7 7 6 5 13 22 23 20 26 24 20 17 14 14 12 7 4 3 5 7 8
42 40 49 52 56 56 50 45 40 42 13 7 8 8 11 8 8 5 15 6 6 10 24 12 8 5 5 6 5 6 7 7 9 7 4 13 15 23 30 32 34 34 33 31 27 23 21 17 13 11 10 11 11 12
36 42 58 58 55 57 55 47 44 37 5 7 8 6 9 4 7 8 11 13 9 9 20 6 6 6 7 5 9 11 12 9 8 7 19 27 31 32 33 32 31 30 29 27 25 23 19 18 18 17 15 14 16 18
51 27 53 49 66 58 57 51 25 15 12 7 7 13 14 15 11 7 11 17 17 12 5 5 10 9 8 6 9 6 8 4 23 34 38 36 37 36 33 32 31 29 28 28 26 26 26 24 17 14 21 26 27 27
57 46 53 68 64 61 38 18 13 11 9 11 8 3 9 16 11 8 9 18 21 16 9 4 6 7 6 11 6 10 9 22 33 39 44 40 37 34 30 28 26 24 24 24 23 21 19 21 23 25 24 25 30 35
58 64 53 46 51 30 10 11 11 9 9 7 12 14 14 15 16 17 16 18 30 18 8 6 5 6 6 10 10 22 36 41 52 49 45 39 35 30 26 22 20 18 16 16 15 18 20 22 22 23 26 27 29 30
57 56 56 44 34 10 8 6 13 7 8 6 9 9 9 10 10 10 12 15 28 14 11 8 9 8 9 15 22 42 49 58 63 52 43 37 30 24 20 15 11 9 9 10 13 15 18 23 26 29 32 35 37 37
56 45 38 35 21 11 6 9 8 8 5 7 7 6 7 11 10 10 7 15 15 9 9 13 23 24 13 15 33 51 57 55 48 44 43 36 26 16 9 5 3 7 11 16 20 24 27 29 30 29 29 30 30 31
52 38 35 23 7 6 6 8 5 6 6 5 5 5 3 5 8 12 10 9 7 7 10 15 30 39 50 56 57 54 50 40 34 33 27 21 14 8 0 7 12 18 22 26 29 31 34 38 40 42 45 48 50 52
46 30 15 7 5 6 5 11 5 5 5 4 7 8 1 6 7 12 7 6 5 12 26 43 46 48 52 57 51 46 39 32 27 22 17 11 6 4 9 15 21 26 30 35 40 43 45 49 49 50 52 52 53 53
33 7 5 8 7 6 8 10 7 4 7 4 7 7 11 7 9 7 5 6 12 26 40 48 50 49 46 43 40 37 32 25 18 14 10 7 5 9 16 24 31 36 40 44 44 42 43 44 46 43 42 42 43 41
6 6 5 6 7 7 8 9 9 8 8 12 10 8 9 15 6 6 7 9 27 26 31 43 45 41 40 36 31 30 26 23 19 16 15 15 15 20 24 25 26 28 29 30 29 33 35 33 34 34 34 34 37 39
4 11 18 18 12 11 12 10 13 14 11 11 11 6 9 8 10 9 10 26 45 48 38 33 39 40 39 38 40 38 34 30 26 23 20 19 17 15 15 17 18 17 24 26 32 36 38 38 37 36 36 38 43 48
6 9 13 17 12 11 10 10 8 11 9 7 6 10 9 9 11 6 18 33 45 52 55 55 49 44 46 46 41 36 33 29 24 21 19 17 14 12 13 14 15 18 25 28 33 37 37 34 36 40 46 50 47 47
10 8 11 23 14 17 8 13 11 15 12 13 13 9 10 11 6 6 11 21 24 33 37 38 39 39 38 38 37 33 29 25 23 21 17 16 15 15 18 23 28 31 30 30 31 32 35 37 40 44 46 48 56 57
12 15 18 14 12 9 8 6 9 7 9 15 9 6 7 7 7 9 10 18 27 29 31 32 34 35 35 32 29 28 28 25 21 20 19 15 15 17 23 25 28 26 28 31 29 31 34 41 44 41 40 49 53 49
6 10 10 9 7 6 8 12 9 10 11 12 8 7 8 8 9 11 13 27 35 33 28 25 23 24 25 26 27 26 23 19 17 16 15 16 17 19 19 18 21 24 29 32 32 32 33 38 24 28 35 42 45 42
5 4 3 4 3 1 9 14 16 14 13 10 11 9 10 10 9 16 23 27 30 27 21 21 22 25 26 26 24 22 20 18 16 15 15 16 17 18 20 25 27 26 27 31 32 33 33 19 23 30 37 39 40 39
4 5 5 4 5 13 16 7 8 5 9 6 7 8 9 9 10 15 34 38 35 32 26 22 24 24 22 22 20 19 17 14 13 13 13 13 13 18 22 24 22 20 25 25 29 31 25 19 27 32 34 28 32 34
6 7 5 8 10 12 14 9 9 6 8 7 11 14 13 11 11 11 16 42 37 25 23 22 22 19 18 17 15 12 10 9 7 5 6 10 15 18 18 15 15 16 20 22 25 26 20 19 22 24 25 27 34 36
Wind_Direction_850mb
212 210 215 220 222 229 238 241 252 261 276 291 322 359 4 4 353 359 11 17 30 59 72 58 63 68 69 47 90 51 128 42 70 77 115 125 147 119 129 138 184 179 151 162 139 193 266 163 143 210 146 168 161 165
208 214 218 220 223 232 237 232 238 251 268 287 286 342 360 338 343 354 356 358 19 34 82 54 77 75 65 53 48 37 100 87 129 103 121 132 140 163 164 196 90 204 208 202 207 210 90 182 195 194 173 170 167 168
212 211 215 216 220 225 229 231 237 239 250 280 284 286 323 324 329 335 354 2 0 18 79 104 84 78 71 58 47 100 88 114 110 115 132 112 140 166 180 221 172 194 181 236 198 173 227 213 209 194 185 166 150 147
208 212 210 210 217 222 227 228 230 234 239 257 276 276 267 294 315 320 352 15 14 358 65 88 122 103 71 59 56 76 113 121 123 114 98 119 133 200 180 82 242 79 157 167 262 251 260 238 215 209 190 175 160 168
202 206 206 203 210 216 221 223 226 231 236 241 259 272 256 269 279 290 316 347 21 58 16 357 149 126 122 58 55 77 95 106 94 103 91 112 121 151 109 200 223 191 169 193 236 223 211 234 224 216 196 188 172 189
206 206 205 204 204 204 208 215 221 225 232 235 245 259 251 243 237 245 293 273 268 35 22 79 244 186 169 137 82 55 85 104 97 90 94 113 160 219 182 215 243 206 211 225 226 251 239 246 266 218 205 196 182 192
206 207 206 203 203 204 205 210 215 217 223 229 234 244 240 227 207 202 211 306 249 61 9 318 352 186 179 167 155 90 63 81 97 108 81 117 146 198 250 236 241 227 223 234 240 253 255 248 246 223 208 203 202 207
204 205 204 202 202 203 203 207 209 208 210 212 220 227 226 219 199 198 196 141 155 176 10 178 279 306 166 161 167 138 144 92 51 88 99 194 146 235 250 254 262 243 236 228 224 224 235 256 232 228 214 215 218 223
203 204 202 202 203 202 203 204 203 201 202 198 204 218 202 182 175 184 179 164 178 175 102 169 195 185 175 149 123 112 138 110 204 183 171 209 152 225 234 260 293 292 250 230 228 224 251 273 277 268 242 227 224 230
200 201 199 198 198 200 199 197 195 193 190 183 183 169 177 171 160 153 160 203 203 213 226 243 202 214 175 148 117 127 107 133 197 129 140 229 259 259 276 291 280 267 280 232 234 221 241 286 280 261 246 237 235 240
198 197 197 194 192 190 189 185 186 192 185 179 178 170 158 143 134 169 174 171 192 253 219 220 199 181 185 136 144 191 143 157 214 144 223 203 262 265 299 310 296 243 225 230 207 233 125 80 47 116 164 147 250 267
196 194 192 192 190 188 179 179 186 186 180 179 154 131 142 176 145 150 177 193 219 228 209 191 202 193 186 181 163 172 157 169 216 143 180 237 253 327 337 353 37 165 173 157 146 138 149 124 115 119 168 245 272 281
195 192 191 184 183 182 180 184 187 186 174 160 177 164 171 174 134 196 177 194 227 203 191 177 164 166 166 183 109 164 175 189 130 186 223 228 328 5 25 55 44 143 204 220 223 214 203 187 175 144 338 317 288 280
193 190 183 179 180 179 179 184 189 181 169 185 175 186 204 187 230 194 198 186 197 191 173 164 148 156 164 170 140 177 116 146 172 195 224 145 106 66 65 72 79 81 95 118 135 155 159 147 140 114 57 46 28 358
188 188 179 181 181 182 181 181 187 184 187 190 197 225 212 235 248 247 217 215 168 171 162 140 107 161 147 156 200 117 159 208 210 207 154 148 124 110 100 94 92 91 91 92 95 96 91 87 82 65 35 13 357 347
187 177 188 181 181 182 174 175 178 185 235 210 228 260 231 255 230 212 203 213 178 136 168 165 146 177 200 175 174 203 170 195 182 172 149 138 129 118 110 104 98 93 89 85 81 75 74 70 61 50 33 16 7 358
172 195 195 172 172 167 166 170 153 175 210 219 228 237 248 276 259 242 202 212 202 180 216 169 185 185 118 196 192 193 187 157 152 142 142 138 131 124 119 112 104 98 92 84 78 72 66 59 47 37 38 28 19 11
179 171 168 176 163 148 152 153 140 186 197 223 253 246 236 254 270 271 231 213 196 203 187 243 152 190 192 175 203 180 156 141 141 140 141 138 135 129 124 114 104 92 83 76 65 58 48 35 26 25 13 2 350 338
161 163 166 169 181 139 112 147 156 191 199 224 247 261 268 267 262 253 241 233 209 201 215 202 206 200 202 213 193 165 155 153 146 142 139 138 135 131 121 110 98 85 72 59 43 28 16 4 353 339 329 324 321 319
151 150 148 140 145 106 103 124 163 179 209 198 227 244 259 257 255 250 249 233 200 195 214 216 212 212 210 215 184 171 162 155 148 139 138 138 135 131 124 112 94 67 32 3 347 337 327 319 315 314 316 318 319 318
138 146 159 157 124 96 122 158 170 191 195 235 216 239 249 240 224 211 200 182 183 213 213 216 219 219 200 172 166 160 155 157 153 153 150 144 142 137 128 115 31 349 337 333 329 324 321 319 318 319 319 318 315 314
147 154 142 139 98 116 122 185 179 179 214 255 239 207 312 266 208 190 187 201 223 216 214 209 177 163 153 150 152 154 152 156 156 152 149 148 150 152 181 333 330 322 318 316 314 313 312 309 308 309 309 308 307 305
151 137 128 126 117 159 153 181 197 198 210 230 185 171 211 291 236 177 178 178 208 192 164 153 146 144 146 147 152 153 154 159 154 152 153 166 190 255 299 306 307 305 302 300 298 298 297 297 300 301 302 303 305 306
158 128 134 169 167 154 155 179 202 233 177 216 190 196 175 200 265 227 167 151 168 164 162 160 159 154 151 155 160 162 164 167 171 170 177 197 243 281 289 289 289 289 290 292 294 295 295 298 302 305 306 308 311 312
133 197 193 192 191 190 199 167 186 207 221 196 195 188 197 164 219 202 177 188 179 177 176 173 172 176 175 174 179 183 186 191 198 207 211 226 251 271 283 290 294 299 303 302 300 301 307 311 312 312 311 311 311 311
205 205 184 189 185 190 198 186 197 208 192 182 216 177 168 177 206 227 191 203 190 190 203 205 201 199 198 200 200 199 200 203 207 214 228 248 263 277 288 303 318 329 325 327 328 325 322 320 319 321 321 325 321 316
241 207 208 202 199 180 203 226 197 195 170 203 206 183 185 201 221 211 195 199 204 202 202 205 216 220 218 210 207 205 202 206 219 234 245 252 258 272 292 306 313 323 335 335 329 325 322 323 320 319 319 315 315 319
240 257 215 188 201 220 227 188 184 194 192 180 167 177 196 203 207 194 195 203 207 205 206 210 212 211 209 202 198 201 209 222 232 240 250 254 262 273 296 305 311 314 319 322 321 317 320 321 319 317 312 315 320 319
234 241 200 211 215 173 180 189 210 210 190 181 194 181 202 190 188 183 191 188 178 175 174 170 166 172 179 188 199 211 220 228 237 249 253 249 256 264 284 298 309 317 315 321 318 315 319 319 318 317 321 320 322 322
236 197 187 177 176 210 196 193 196 182 171 173 159 150 158 166 196 206 188 179 178 172 173 176 185 192 201 207 211 214 221 234 245 243 248 261 273 282 290 304 314 318 325 324 317 312 312 317 330 324 327 330 333 330
294 222 150 108 97 152 167 153 151 155 160 185 208 204 192 185 189 184 176 181 185 187 194 201 203 204 204 204 207 212 223 235 250 255 266 278 286 290 293 303 307 311 322 324 321 317 315 316 317 330 334 339 341 343
224 229 153 121 121 143 144 163 181 172 162 151 165 171 179 189 218 214 205 194 193 197 202 206 202 199 198 200 202 209 221 228 239 257 277 286 290 301 305 308 313 318 331 331 322 318 314 313 320 333 339 344 351 352
202 200 163 135 148 179 209 212 203 177 194 215 211 203 202 209 237 229 215 207 207 201 204 190 182 188 188 190 191 194 203 218 217 240 278 301 312 316 317 318 324 332 341 332 334 337 331 324 329 339 342 338 345 353